OBJECT E

基本信息
目录编号:
61231
目录名称:
OBJECT E
国际标识:
2024-173E
轨道中心:
EARTH
物体状态:
在轨
发射日期:
2024-09-24 UTC
国别:
中国 (CN)
轨道信息
数据来源: 国际轨道数据
星历时间: 2026-09-14T06:49:31+0800
半长轴: 6886.452km
偏心率: 0.0001552
轨道倾角: 97.412°
近地点辐角: 92.559°
升交点赤经: 327.452°
平近点角: 267.583°
近地点: 507.246km
远地点: 509.384km
周期: 94.788分钟
每日圈数: 15.191811
详细信息
发射场:
YSLA
轨道高度:
LEO
数据来源:
AOE Working Group
参考系:
TEME
时间系统:
UTC
历元类型:
SGP4
2D轨道图
3D轨道图
轨道高度分析图
轨道倾角分析图
轨道综合分析图
查看轨道综合分析图